Location: Ar Ranvel
(48.3000°N, 4.8833°W)
Time: 09:38:41
(UTC+00:00)

Cosmos 1340 - Pass Details

Date: 16 June 2021
Orbit: 498 x 504 km, 81.2° (Epoch: 26 July)

Event Time Altitude Azimuth Distance (km) Brightness Sun altitude
Exits shadow 22:26:11 20° 186° (S) 1,218 4.1 -13.9°
Maximum altitude 22:28:43 82° 100° (E) 516 2.6 -14.1°
Drops below altitude 10° 22:32:31 10° 13° (NNE) 1,728 6.1 -14.4°
Sets 22:34:39 0° 13° (NNE) 2,618 7.2 -14.5°
